Flag for U.S.A. Weather past 2 weeks in Washington DC, District of Columbia, U.S.A.

Now
55 °F

Light rain. Overcast.


Feels Like: 52 °F
Forecast: 51 / 59 °F
Wind: 13 mph from Northwest

Location: Reagan National Airport

Current Time: Oct 22, 2014 at 4:46:46 AM

Latest Report: Oct 22, 2014 at 3:52 AM


Visibility: 5 mi

Pressure: 29.87 "Hg

Humidity: 83%

Dew point: 50 °F

Location of Washington DCLocation

Historic Weather in Washington DC — Graph

°F

Washington DC temperature yesterday

Maximum temperature yesterday: 72 °F (at 1:52 PM)
Minimum temperature yesterday: 55 °F (at 6:52 AM)
Average temperature yesterday: 60 °F

Past Weeks' High & Low Weather Summary

 TemperatureHumidityPressure
High81 °F (Oct 14, 3:52 PM)94% (Oct 13, 10:59 PM)30.30 "Hg (Oct 13, 10:59 PM)
Low46 °F (Oct 20, 6:52 AM)29% (Oct 9, 1:52 PM)29.64 "Hg (Oct 18, 4:52 AM)
Average64 °F65%29.98 "Hg
* Reported Oct 7 3:52 AM — Oct 22 3:52 AM, Washington DC, Weather by CustomWeather, © 2014

Note: Actual official high and low records may vary slightly from our data, if they occured in-between our weather recording intervals... More about our weather records

Advertising

Washington DC weather history for previous 24 hours

 ConditionsComfort  
Time TempWeatherWind HumidityBarometerVisibility
3:52 AM
Oct 22
55 °FLight rain. Overcast.13 mph83%29.87 "Hg5 mi
2:52 AM55 °FLight rain. Overcast.14 mph80%29.87 "Hg10 mi
1:52 AM55 °FLight rain. Overcast.9 mph83%29.88 "Hg10 mi
12:52 AM56 °FLight rain. Mostly cloudy.6 mph81%29.89 "Hg7 mi
11:52 PM
Oct 21
55 °FLight rain. Overcast.9 mph83%29.90 "Hg10 mi
10:52 PM56 °FLight rain. Mostly cloudy.10 mph81%29.92 "Hg5 mi
9:52 PM57 °FLight rain. Mostly cloudy.7 mph81%29.92 "Hg10 mi
8:52 PM58 °FMostly cloudy.8 mph75%29.90 "Hg10 mi
7:52 PM59 °FLight rain. Mostly cloudy.7 mph75%29.89 "Hg10 mi
6:52 PM60 °FLight rain. Mostly cloudy.13 mph72%29.86 "Hg10 mi
5:52 PM62 °FMostly cloudy.9 mph65%29.84 "Hg10 mi
4:52 PM63 °FLight rain. Overcast.9 mph65%29.82 "Hg10 mi
3:52 PM69 °FBroken clouds.No wind44%29.80 "Hg10 mi
2:52 PM70 °FPartly sunny.5 mph44%29.81 "Hg10 mi
1:52 PM72 °FScattered clouds.No wind38%29.82 "Hg10 mi
12:52 PM70 °FScattered clouds.5 mph46%29.84 "Hg10 mi
10:52 AM63 °FPartly sunny.3 mph63%29.88 "Hg10 mi
9:52 AM62 °FScattered clouds.No wind62%29.89 "Hg10 mi
8:52 AM57 °FScattered clouds.5 mph74%29.89 "Hg10 mi
7:52 AM56 °FPassing clouds.No wind72%29.87 "Hg10 mi
6:52 AM55 °FPassing clouds.No wind77%29.87 "Hg10 mi
5:52 AM56 °FPassing clouds.3 mph75%29.87 "Hg10 mi
4:52 AM56 °FPassing clouds.3 mph75%29.87 "Hg10 mi
Weather by CustomWeather, © 2014

See weather overviewHow to use our weather pages